Time,TemperatureF,DewpointF,PressureIn,WindDirection,WindDirectionDegrees,WindSpeedMPH,WindSpeedGustMPH,Humidity,HourlyPrecipIn,Conditions,Clouds,dailyrainin,SoftwareType,DateUTC
2013-02-02 00:03:00,10.0,0.0,30.05,West,281,7.0,15.0,62,0.00,,,0.00,,2013-02-02 05:03:00,
2013-02-02 00:12:00,10.0,0.0,30.05,West,281,7.0,15.0,62,0.00,,,0.00,,2013-02-02 05:12:00,
2013-02-02 00:22:00,10.0,0.0,30.05,WNW,302,8.0,18.0,62,0.00,,,0.00,,2013-02-02 05:22:00,
2013-02-02 00:33:00,10.0,-1.0,30.06,NW,312,10.0,16.0,61,0.00,,,0.00,,2013-02-02 05:33:00,
2013-02-02 00:42:00,10.0,-1.0,30.06,NW,312,10.0,16.0,61,0.00,,,0.00,,2013-02-02 05:42:00,
2013-02-02 00:52:00,10.0,-1.0,30.05,NNW,328,11.0,21.0,60,0.00,,,0.00,,2013-02-02 05:52:00,
2013-02-02 01:02:00,10.0,-1.0,30.05,WNW,293,11.0,21.0,60,0.00,,,0.00,,2013-02-02 06:02:00,
2013-02-02 01:12:00,10.0,-1.0,30.05,WNW,293,11.0,21.0,60,0.00,,,0.00,,2013-02-02 06:12:00,
2013-02-02 01:22:00,10.0,-1.0,30.05,WNW,303,8.0,19.0,60,0.00,,,0.00,,2013-02-02 06:22:00,
2013-02-02 01:32:00,10.0,-1.0,30.06,NW,312,8.0,21.0,60,0.00,,,0.00,,2013-02-02 06:32:00,
2013-02-02 01:42:00,10.0,-1.0,30.06,NW,312,8.0,21.0,60,0.00,,,0.00,,2013-02-02 06:42:00,
2013-02-02 01:52:00,10.0,-1.0,30.06,NW,312,8.0,21.0,60,0.00,,,0.00,,2013-02-02 06:52:00,
2013-02-02 02:02:00,9.0,-2.0,30.07,NNW,328,11.0,19.0,59,0.00,,,0.00,,2013-02-02 07:02:00,
2013-02-02 02:12:00,9.0,-2.0,30.07,NNW,328,11.0,19.0,59,0.00,,,0.00,,2013-02-02 07:12:00,
2013-02-02 02:21:00,9.0,-2.0,30.08,NW,310,10.0,22.0,60,0.00,,,0.00,,2013-02-02 07:21:00,
2013-02-02 02:32:00,9.0,-2.0,30.08,NW,310,8.0,19.0,61,0.00,,,0.00,,2013-02-02 07:32:00,
2013-02-02 02:42:00,9.0,-2.0,30.08,NW,310,8.0,19.0,61,0.00,,,0.00,,2013-02-02 07:42:00,
2013-02-02 02:51:00,9.0,-1.0,30.09,West,274,5.0,16.0,62,0.00,,,0.00,,2013-02-02 07:51:00,
2013-02-02 03:01:00,9.0,-2.0,30.10,WNW,297,5.0,16.0,61,0.00,,,0.00,,2013-02-02 08:01:00,
2013-02-02 03:11:00,9.0,-2.0,30.10,WNW,297,5.0,16.0,61,0.00,,,0.00,,2013-02-02 08:11:00,
2013-02-02 03:21:00,9.0,-1.0,30.10,NW,320,8.0,13.0,62,0.00,,,0.00,,2013-02-02 08:21:00,
2013-02-02 03:32:00,9.0,-1.0,30.10,NW,305,5.0,14.0,62,0.00,,,0.00,,2013-02-02 08:32:00,
2013-02-02 03:41:00,9.0,-1.0,30.10,NW,305,5.0,14.0,62,0.00,,,0.00,,2013-02-02 08:41:00,
2013-02-02 03:52:00,9.0,-1.0,30.12,WNW,297,6.0,13.0,62,0.00,,,0.00,,2013-02-02 08:52:00,
2013-02-02 04:02:00,9.0,-1.0,30.13,NW,317,5.0,10.0,62,0.00,,,0.00,,2013-02-02 09:02:00,
2013-02-02 04:11:00,9.0,-1.0,30.13,NW,317,5.0,10.0,62,0.00,,,0.00,,2013-02-02 09:11:00,
2013-02-02 04:22:00,9.0,-1.0,30.13,WNW,291,4.0,13.0,63,0.00,,,0.00,,2013-02-02 09:22:00,
2013-02-02 04:32:00,9.0,-1.0,30.14,NW,316,2.0,9.0,64,0.00,,,0.00,,2013-02-02 09:32:00,
2013-02-02 04:42:00,9.0,-1.0,30.14,NW,316,2.0,9.0,64,0.00,,,0.00,,2013-02-02 09:42:00,
2013-02-02 04:52:00,9.0,-1.0,30.14,WNW,299,5.0,13.0,63,0.00,,,0.00,,2013-02-02 09:52:00,
2013-02-02 05:02:00,9.0,-1.0,30.15,WNW,299,4.0,12.0,63,0.00,,,0.00,,2013-02-02 10:02:00,
2013-02-02 05:11:00,9.0,-1.0,30.15,WNW,299,4.0,12.0,63,0.00,,,0.00,,2013-02-02 10:11:00,
2013-02-02 05:21:00,8.0,-2.0,30.15,NW,307,5.0,9.0,63,0.00,,,0.00,,2013-02-02 10:21:00,
2013-02-02 05:32:00,8.0,-1.0,30.16,WNW,300,2.0,6.0,66,0.00,,,0.00,,2013-02-02 10:32:00,
2013-02-02 05:42:00,8.0,-1.0,30.16,WNW,300,2.0,6.0,66,0.00,,,0.00,,2013-02-02 10:42:00,
2013-02-02 05:52:00,8.0,-1.0,30.16,NW,316,2.0,9.0,66,0.00,,,0.00,,2013-02-02 10:52:00,
2013-02-02 06:02:00,8.0,-1.0,30.17,WNW,289,2.0,7.0,65,0.00,,,0.00,,2013-02-02 11:02:00,
2013-02-02 06:11:00,8.0,-1.0,30.17,WNW,289,2.0,7.0,65,0.00,,,0.00,,2013-02-02 11:11:00,
2013-02-02 06:22:00,8.0,-1.0,30.18,WSW,247,1.0,9.0,65,0.00,,,0.00,,2013-02-02 11:22:00,
2013-02-02 06:32:00,8.0,-2.0,30.19,West,276,2.0,7.0,64,0.00,,,0.00,,2013-02-02 11:32:00,
2013-02-02 06:42:00,8.0,-2.0,30.19,West,276,2.0,7.0,64,0.00,,,0.00,,2013-02-02 11:42:00,
2013-02-02 06:52:00,8.0,-1.0,30.19,North,354,2.0,6.0,65,0.00,,,0.00,,2013-02-02 11:52:00,
2013-02-02 07:02:00,8.0,-1.0,30.20,NW,322,1.0,5.0,65,0.00,,,0.00,,2013-02-02 12:02:00,
2013-02-02 07:11:00,8.0,-1.0,30.20,NW,322,1.0,5.0,65,0.00,,,0.00,,2013-02-02 12:11:00,
2013-02-02 07:22:00,7.0,-2.0,30.20,WNW,297,1.0,6.0,66,0.00,,,0.00,,2013-02-02 12:22:00,
2013-02-02 07:32:00,8.0,-1.0,30.21,NW,315,0.0,4.0,67,0.00,,,0.00,,2013-02-02 12:32:00,
2013-02-02 07:42:00,8.0,-1.0,30.21,NW,315,0.0,4.0,67,0.00,,,0.00,,2013-02-02 12:42:00,
2013-02-02 07:52:00,8.0,-1.0,30.23,West,276,0.0,6.0,67,0.00,,,0.00,,2013-02-02 12:52:00,
2013-02-02 08:03:00,9.0,0.0,30.23,WNW,291,2.0,6.0,66,0.00,,,0.00,,2013-02-02 13:03:00,
2013-02-02 08:11:00,9.0,0.0,30.23,WNW,291,2.0,6.0,66,0.00,,,0.00,,2013-02-02 13:11:00,
2013-02-02 08:22:00,9.0,0.0,30.23,West,268,4.0,11.0,65,0.00,,,0.00,,2013-02-02 13:22:00,
2013-02-02 08:33:00,10.0,0.0,30.23,West,274,1.0,9.0,62,0.00,,,0.00,,2013-02-02 13:33:00,
2013-02-02 08:42:00,10.0,0.0,30.23,West,274,1.0,9.0,62,0.00,,,0.00,,2013-02-02 13:42:00,
2013-02-02 08:52:00,10.0,-1.0,30.24,West,261,2.0,6.0,61,0.00,,,0.00,,2013-02-02 13:52:00,
2013-02-02 09:03:00,11.0,-1.0,30.23,West,279,2.0,9.0,57,0.00,,,0.00,,2013-02-02 14:03:00,
2013-02-02 09:11:00,11.0,-1.0,30.23,West,279,2.0,9.0,57,0.00,,,0.00,,2013-02-02 14:11:00,
2013-02-02 09:22:00,11.0,-2.0,30.24,West,264,6.0,10.0,56,0.00,,,0.00,,2013-02-02 14:22:00,
2013-02-02 09:33:00,12.0,-1.0,30.23,WNW,283,3.0,11.0,55,0.00,,,0.00,,2013-02-02 14:33:00,
2013-02-02 09:42:00,12.0,-1.0,30.23,WNW,283,3.0,11.0,55,0.00,,,0.00,,2013-02-02 14:42:00,
2013-02-02 09:52:00,13.0,-1.0,30.23,WNW,302,4.0,12.0,53,0.00,,,0.00,,2013-02-02 14:52:00,
2013-02-02 10:03:00,13.0,-1.0,30.23,WNW,286,4.0,10.0,53,0.00,,,0.00,,2013-02-02 15:03:00,
2013-02-02 10:12:00,13.0,-1.0,30.23,WNW,286,4.0,10.0,53,0.00,,,0.00,,2013-02-02 15:12:00,
2013-02-02 10:22:00,14.0,-1.0,30.24,WNW,282,4.0,11.0,51,0.00,,,0.00,,2013-02-02 15:22:00,
2013-02-02 10:33:00,14.0,-1.0,30.24,WNW,294,5.0,13.0,51,0.00,,,0.00,,2013-02-02 15:33:00,
2013-02-02 10:42:00,14.0,-1.0,30.24,WNW,294,5.0,13.0,51,0.00,,,0.00,,2013-02-02 15:42:00,
2013-02-02 10:52:00,14.0,-1.0,30.24,NW,307,7.0,13.0,50,0.00,,,0.00,,2013-02-02 15:52:00,
2013-02-02 11:03:00,15.0,0.0,30.23,WNW,291,6.0,14.0,50,0.00,,,0.00,,2013-02-02 16:03:00,
2013-02-02 11:12:00,15.0,0.0,30.23,WNW,291,6.0,14.0,50,0.00,,,0.00,,2013-02-02 16:12:00,
2013-02-02 11:23:00,16.0,0.0,30.23,WNW,290,4.0,15.0,48,0.00,,,0.00,,2013-02-02 16:23:00,
2013-02-02 11:32:00,17.0,0.0,30.22,WNW,296,5.0,12.0,47,0.00,,,0.00,,2013-02-02 16:32:00,
2013-02-02 11:42:00,17.0,0.0,30.22,WNW,296,5.0,12.0,47,0.00,,,0.00,,2013-02-02 16:42:00,
2013-02-02 11:52:00,17.0,-1.0,30.21,North,10,5.0,10.0,45,0.00,,,0.00,,2013-02-02 16:52:00,
2013-02-02 12:03:00,19.0,1.0,30.20,West,263,3.0,10.0,44,0.00,,,0.00,,2013-02-02 17:03:00,
2013-02-02 12:11:00,19.0,1.0,30.20,West,263,3.0,10.0,44,0.00,,,0.00,,2013-02-02 17:11:00,
2013-02-02 12:22:00,19.0,1.0,30.20,WSW,252,2.0,8.0,44,0.00,,,0.00,,2013-02-02 17:22:00,
2013-02-02 12:33:00,19.0,-1.0,30.19,NW,323,4.0,11.0,41,0.00,,,0.00,,2013-02-02 17:33:00,
2013-02-02 12:42:00,19.0,-1.0,30.19,NW,323,4.0,11.0,41,0.00,,,0.00,,2013-02-02 17:42:00,
2013-02-02 12:52:00,20.0,0.0,30.19,SSW,210,3.0,10.0,41,0.00,,,0.00,,2013-02-02 17:52:00,
2013-02-02 13:03:00,20.0,0.0,30.18,West,274,6.0,12.0,41,0.00,,,0.00,,2013-02-02 18:03:00,
2013-02-02 13:12:00,20.0,0.0,30.18,West,274,6.0,12.0,41,0.00,,,0.00,,2013-02-02 18:12:00,
2013-02-02 13:22:00,21.0,1.0,30.18,West,272,6.0,10.0,41,0.00,,,0.00,,2013-02-02 18:22:00,
2013-02-02 13:32:00,21.0,1.0,30.18,WSW,254,4.0,10.0,41,0.00,,,0.00,,2013-02-02 18:32:00,
2013-02-02 13:42:00,21.0,1.0,30.18,WSW,254,4.0,10.0,41,0.00,,,0.00,,2013-02-02 18:42:00,
2013-02-02 13:52:00,22.0,2.0,30.18,WSW,241,3.0,16.0,41,0.00,,,0.00,,2013-02-02 18:52:00,
2013-02-02 14:02:00,22.0,2.0,30.17,West,259,2.0,9.0,41,0.00,,,0.00,,2013-02-02 19:02:00,
2013-02-02 14:12:00,22.0,2.0,30.17,West,259,2.0,9.0,41,0.00,,,0.00,,2013-02-02 19:12:00,
2013-02-02 14:22:00,22.0,2.0,30.16,WNW,283,2.0,11.0,41,0.00,,,0.00,,2013-02-02 19:22:00,
2013-02-02 14:32:00,22.0,2.0,30.17,West,272,1.0,9.0,41,0.00,,,0.00,,2013-02-02 19:32:00,
2013-02-02 14:42:00,22.0,2.0,30.17,West,272,1.0,9.0,41,0.00,,,0.00,,2013-02-02 19:42:00,
2013-02-02 14:51:00,22.0,2.0,30.17,South,189,5.0,10.0,41,0.00,,,0.00,,2013-02-02 19:51:00,
2013-02-02 15:02:00,21.0,2.0,30.17,SW,222,2.0,10.0,42,0.00,,,0.00,,2013-02-02 20:02:00,
2013-02-02 15:12:00,21.0,2.0,30.17,SW,222,2.0,10.0,42,0.00,,,0.00,,2013-02-02 20:12:00,
2013-02-02 15:22:00,22.0,2.0,30.17,South,183,6.0,10.0,42,0.00,,,0.00,,2013-02-02 20:22:00,
2013-02-02 15:32:00,22.0,3.0,30.17,SE,143,6.0,11.0,43,0.00,,,0.00,,2013-02-02 20:32:00,
2013-02-02 15:42:00,22.0,3.0,30.17,SE,143,6.0,11.0,43,0.00,,,0.00,,2013-02-02 20:42:00,
2013-02-02 15:52:00,21.0,4.0,30.17,SSW,202,4.0,10.0,46,0.00,,,0.00,,2013-02-02 20:52:00,
2013-02-02 16:02:00,21.0,6.0,30.16,SSW,206,3.0,11.0,51,0.00,,,0.00,,2013-02-02 21:02:00,
2013-02-02 16:11:00,21.0,6.0,30.16,SSW,206,3.0,11.0,51,0.00,,,0.00,,2013-02-02 21:11:00,
2013-02-02 16:21:00,20.0,6.0,30.16,WSW,243,6.0,14.0,54,0.00,,,0.00,,2013-02-02 21:21:00,
2013-02-02 16:32:00,20.0,7.0,30.16,SSW,198,4.0,11.0,56,0.00,,,0.00,,2013-02-02 21:32:00,
2013-02-02 16:42:00,20.0,7.0,30.16,SSW,198,4.0,11.0,56,0.00,,,0.00,,2013-02-02 21:42:00,
2013-02-02 16:52:00,20.0,8.0,30.16,South,183,4.0,11.0,59,0.00,,,0.00,,2013-02-02 21:52:00,
2013-02-02 17:03:00,20.0,9.0,30.16,SW,223,2.0,9.0,61,0.00,,,0.00,,2013-02-02 22:03:00,
2013-02-02 17:12:00,20.0,9.0,30.16,SW,223,2.0,9.0,61,0.00,,,0.00,,2013-02-02 22:12:00,
2013-02-02 17:21:00,19.0,9.0,30.16,South,186,3.0,6.0,63,0.00,,,0.00,,2013-02-02 22:21:00,
2013-02-02 17:32:00,19.0,9.0,30.16,SSE,168,3.0,7.0,64,0.00,,,0.00,,2013-02-02 22:32:00,
2013-02-02 17:42:00,19.0,9.0,30.16,SSE,168,3.0,7.0,64,0.00,,,0.00,,2013-02-02 22:42:00,
2013-02-02 17:52:00,19.0,9.0,30.16,South,186,0.0,5.0,65,0.00,,,0.00,,2013-02-02 22:52:00,
2013-02-02 18:02:00,19.0,9.0,30.16,South,190,2.0,6.0,65,0.00,,,0.00,,2013-02-02 23:02:00,
2013-02-02 18:11:00,19.0,9.0,30.16,South,190,2.0,6.0,65,0.00,,,0.00,,2013-02-02 23:11:00,
2013-02-02 18:22:00,19.0,10.0,30.17,WSW,254,0.0,3.0,66,0.00,,,0.00,,2013-02-02 23:22:00,
2013-02-02 18:32:00,19.0,10.0,30.16,SSW,195,2.0,4.0,67,0.00,,,0.00,,2013-02-02 23:32:00,
2013-02-02 18:42:00,19.0,10.0,30.16,SSW,195,2.0,4.0,67,0.00,,,0.00,,2013-02-02 23:42:00,
2013-02-02 18:52:00,19.0,10.0,30.16,SSW,201,2.0,5.0,68,0.00,,,0.00,,2013-02-02 23:52:00,
2013-02-02 19:02:00,19.0,10.0,30.17,SSW,192,0.0,4.0,67,0.00,,,0.00,,2013-02-03 00:02:00,
2013-02-02 19:11:00,19.0,10.0,30.17,SSW,192,0.0,4.0,67,0.00,,,0.00,,2013-02-03 00:11:00,
2013-02-02 19:22:00,19.0,10.0,30.17,South,184,0.0,3.0,66,0.00,,,0.00,,2013-02-03 00:22:00,
2013-02-02 19:32:00,19.0,10.0,30.17,SSW,199,0.0,4.0,66,0.00,,,0.00,,2013-02-03 00:32:00,
2013-02-02 19:42:00,19.0,10.0,30.17,SSW,199,0.0,4.0,66,0.00,,,0.00,,2013-02-03 00:42:00,
2013-02-02 19:52:00,19.0,10.0,30.17,SSW,199,1.0,4.0,66,0.00,,,0.00,,2013-02-03 00:52:00,
2013-02-02 20:02:00,19.0,10.0,30.17,SSW,199,0.0,3.0,66,0.00,,,0.00,,2013-02-03 01:02:00,
2013-02-02 20:11:00,19.0,10.0,30.17,SSW,199,0.0,3.0,66,0.00,,,0.00,,2013-02-03 01:11:00,
2013-02-02 20:21:00,19.0,10.0,30.16,SSW,200,0.0,3.0,67,0.00,,,0.00,,2013-02-03 01:21:00,
2013-02-02 20:32:00,19.0,10.0,30.16,SSW,201,0.0,2.0,67,0.00,,,0.00,,2013-02-03 01:32:00,
2013-02-02 20:42:00,19.0,10.0,30.16,SSW,201,0.0,2.0,67,0.00,,,0.00,,2013-02-03 01:42:00,
2013-02-02 20:52:00,19.0,10.0,30.16,SW,234,0.0,3.0,66,0.00,,,0.00,,2013-02-03 01:52:00,
2013-02-02 21:01:00,19.0,10.0,30.16,SW,234,0.0,0.0,66,0.00,,,0.00,,2013-02-03 02:01:00,
2013-02-02 21:11:00,19.0,10.0,30.16,SW,234,0.0,0.0,66,0.00,,,0.00,,2013-02-03 02:11:00,
2013-02-02 21:21:00,19.0,10.0,30.16,SW,234,0.0,0.0,67,0.00,,,0.00,,2013-02-03 02:21:00,
2013-02-02 21:32:00,19.0,11.0,30.16,SW,234,0.0,2.0,70,0.00,,,0.00,,2013-02-03 02:32:00,
2013-02-02 21:42:00,19.0,11.0,30.16,SW,234,0.0,2.0,70,0.00,,,0.00,,2013-02-03 02:42:00,
2013-02-02 21:52:00,19.0,11.0,30.15,SW,233,0.0,0.0,69,0.00,,,0.00,,2013-02-03 02:52:00,
2013-02-02 22:02:00,19.0,12.0,30.15,WSW,245,0.0,0.0,73,0.00,,,0.00,,2013-02-03 03:02:00,
2013-02-02 22:11:00,19.0,12.0,30.15,WSW,245,0.0,0.0,73,0.00,,,0.00,,2013-02-03 03:11:00,
2013-02-02 22:22:00,19.0,11.0,30.15,WSW,245,0.0,0.0,70,0.00,,,0.00,,2013-02-03 03:22:00,
2013-02-02 22:32:00,19.0,11.0,30.14,WSW,245,0.0,0.0,72,0.00,,,0.00,,2013-02-03 03:32:00,
2013-02-02 22:42:00,19.0,11.0,30.14,WSW,245,0.0,0.0,72,0.00,,,0.00,,2013-02-03 03:42:00,
2013-02-02 22:52:00,19.0,10.0,30.14,WSW,245,0.0,0.0,68,0.00,,,0.00,,2013-02-03 03:52:00,
2013-02-02 23:01:00,19.0,11.0,30.14,WSW,245,0.0,0.0,70,0.00,,,0.00,,2013-02-03 04:01:00,
2013-02-02 23:11:00,19.0,11.0,30.14,WSW,245,0.0,0.0,70,0.00,,,0.00,,2013-02-03 04:11:00,
2013-02-02 23:22:00,19.0,11.0,30.13,WSW,247,0.0,2.0,72,0.00,,,0.00,,2013-02-03 04:22:00,
2013-02-02 23:32:00,19.0,11.0,30.13,WNW,293,0.0,1.0,71,0.00,,,0.00,,2013-02-03 04:32:00,
2013-02-02 23:42:00,19.0,11.0,30.13,WNW,293,0.0,1.0,71,0.00,,,0.00,,2013-02-03 04:42:00,
2013-02-02 23:52:00,19.0,12.0,30.13,WNW,293,0.0,1.0,74,0.00,,,0.00,,2013-02-03 04:52:00,